Вернуться в каталог

NOAA 16 DEB

АктивенPO
NORAD 41663·DEBRIS·🇺🇸 United States

Запущен Sep 21, 2000 с Vandenberg Space Force Base

Loading…

Ближайшие Пролёты (ближайшие 24 часа)

TLE

СвежийSource: Space-Track

Эпоха: Sep 13, 2026, 09:28 UTC

1 41663U 00055PC  26256.39460864  .00007940  00000-0  16714-2 0  9992
2 41663  98.8318  50.3996 0011954 199.7313 160.3424 14.59752833541539

Отслеживайте NOAA 16 DEB в реальном времени с AllMySat

Download on the App Store